Flag for Sweden Weather past 2 weeks in Stockholm, Sweden

Now
54 °F

Passing clouds.


Feels Like: 51 °F
Forecast: 40 / 58 °F
Wind: 8 mph from North

Location: Stockholm Bromma Airport

Current Time: Apr 21, 2015 at 12:34:19 PM

Latest Report: Apr 21, 2015 at 11:50 AM


Visibility: N/A

Pressure: 30.24 "Hg

Humidity: 47%

Dew point: 34 °F

Location of StockholmLocation

Historic Weather in Stockholm — Graph

°F

Stockholm temperature yesterday

Maximum temperature yesterday: 61 °F (at 6:20 PM)
Minimum temperature yesterday: 39 °F (at 11:50 PM)
Average temperature yesterday: 50 °F

Past Weeks' High & Low Weather Summary

 TemperatureHumidityPressure
High61 °F (Apr 19, 3:50 PM)100% (Apr 11, 2:50 AM)30.39 "Hg (Apr 11, 2:50 AM)
Low30 °F (Apr 18, 5:20 AM)25% (Apr 8, 2:20 PM)29.33 "Hg (Apr 15, 10:50 PM)
Average45 °F64%29.93 "Hg
* Reported Apr 6 11:20 AM — Apr 21 11:20 AM, Stockholm, Weather by CustomWeather, © 2015

Note: Actual official high and low records may vary slightly from our data, if they occured in-between our weather recording intervals... More about our weather records

Advertising

Stockholm weather history for previous 24 hours

 ConditionsComfort  
Time TempWeatherWind HumidityBarometerVisibility
11:20 AM
Tue, Apr 21
52 °FPassing clouds.12 mph47%30.24 "HgN/A
10:50 AM50 °FPassing clouds.10 mph50%30.24 "HgN/A
10:20 AM50 °FPassing clouds.10 mph54%30.21 "HgN/A
9:50 AM50 °FPassing clouds.9 mph54%30.21 "HgN/A
9:20 AM48 °FSunny.9 mph58%30.21 "Hg10 mi
8:50 AM46 °FPassing clouds.10 mph62%30.21 "HgN/A
8:20 AM45 °FPassing clouds.10 mph66%30.21 "HgN/A
7:50 AM45 °FPassing clouds.12 mph61%30.21 "HgN/A
7:20 AM43 °FPassing clouds.10 mph66%30.18 "HgN/A
6:50 AM41 °FPassing clouds.8 mph70%30.18 "HgN/A
6:20 AM41 °FSunny.8 mph70%30.18 "Hg10 mi
5:20 AM39 °FChilly.8 mph75%30.18 "HgN/A
4:50 AM41 °FQuite cool.8 mph70%30.18 "HgN/A
4:20 AM41 °FQuite cool.10 mph70%30.15 "HgN/A
3:50 AM43 °FQuite cool.12 mph66%30.15 "HgN/A
3:20 AM43 °FQuite cool.10 mph66%30.15 "HgN/A
2:50 AM43 °FQuite cool.10 mph66%30.15 "HgN/A
2:20 AM43 °FQuite cool.12 mph61%30.15 "HgN/A
1:50 AM43 °FQuite cool.12 mph66%30.15 "HgN/A
1:20 AM37 °FChilly.3 mph81%30.15 "HgN/A
12:50 AM39 °FChilly.3 mph81%30.12 "HgN/A
12:20 AM37 °FChilly.2 mph81%30.12 "HgN/A
11:50 PM
Mon, Apr 20
39 °FChilly.2 mph75%30.12 "HgN/A
11:20 PM41 °FQuite cool.3 mph70%30.12 "HgN/A
10:50 PM43 °FQuite cool.5 mph71%30.12 "HgN/A
10:20 PM43 °FQuite cool.5 mph71%30.12 "HgN/A
9:50 PM45 °FClear.6 mph66%30.12 "Hg10 mi
9:20 PM46 °FClear.12 mph66%30.12 "Hg10 mi
8:50 PM50 °FSunny.2 mph50%30.09 "Hg10 mi
8:20 PM52 °FSunny.2 mph47%30.09 "Hg10 mi
7:50 PM57 °FPassing clouds.3 mph36%30.09 "HgN/A
7:20 PM57 °FSunny.6 mph33%30.09 "Hg10 mi
6:50 PM59 °FSunny.9 mph34%30.12 "Hg10 mi
6:20 PM61 °FSunny.10 mph31%30.12 "Hg10 mi
5:50 PM59 °FSunny.9 mph34%30.12 "Hg10 mi
5:20 PM59 °FPassing clouds.9 mph36%30.12 "HgN/A
4:50 PM57 °FSunny.8 mph41%30.15 "Hg10 mi
4:20 PM57 °FSunny.12 mph41%30.15 "Hg10 mi
3:50 PM57 °FPassing clouds.10 mph41%30.15 "HgN/A
3:20 PM55 °FPassing clouds.10 mph41%30.18 "HgN/A
2:50 PM55 °FPassing clouds.13 mph44%30.18 "HgN/A
2:20 PM54 °FPassing clouds.14 mph44%30.18 "HgN/A
1:50 PM54 °FPassing clouds.14 mph47%30.21 "HgN/A
1:20 PM52 °FPassing clouds.12 mph50%30.21 "HgN/A
12:50 PM52 °FScattered clouds.14 mph50%30.21 "HgN/A
12:20 PM52 °FScattered clouds.13 mph50%30.21 "HgN/A
Weather by CustomWeather, © 2015

See weather overviewHow to use our weather pages